Weather History for Westhampton Beach, NY

Change the Weather History Date:

Wednesday, November 2, 2011

  Actual Average Record
Temperature  
Mean Temperature 42 °F -  
Max Temperature 57 °F 54 °F 66 °F (1999)
Min Temperature 28 °F 35 °F 24 °F (2010)
Degree Days  
Heating Degree Days 22    
Moisture  
Dew Point 33 °F    
Average Humidity 74    
Maximum Humidity 92    
Minimum Humidity 37    
Precipitation  
Precipitation 0.00 in - - ()
Sea Level Pressure  
Sea Level Pressure 30.36 in    
Wind  
Wind Speed 4 mph (North)    
Max Wind Speed 9 mph    
Max Gust Speed -    
Visibility 10 miles    
Events      
Averages and records for this station are not official NWS values.
T = Trace of Precipitation, MM = Missing Value Source: NWS Daily Summary

Daily Weather History Graph

Daily Weather History Graph

Search for Another Location

Airport:

Trip Planner

Search our weather history database for the weather conditions in past years. The results will help you decide how hot, cold, wet, or windy it might be!

Date:

Astronomy

Nov. 02, 2011 Rise Set
Actual Time 7:21 AM EDT 5:45 PM EDT
Civil Twilight 6:53 AM EDT 6:14 PM EDT
Nautical Twilight 6:20 AM EDT 6:46 PM EDT
Astronomical Twilight 5:48 AM EDT 7:18 PM EDT
Moon 1:40 PM EDT (11/2) No Moon Set
Length of Visible Light 11h 20m
Length of Day
10h 23m
Waxing Crescent, 50% of the Moon is Illuminated
Nov 2
Waxing Crescent
Nov 2
First Quarter
Nov 10
Full
Nov 18
Last Quarter
Nov 25
New

Hourly Weather History & Observations

Time (EDT) Temp. Windchill Dew Point Humidity Pressure Visibility Wind Dir Wind Speed Gust Speed Precip Events Conditions
12:53 AM 41.0 °F 36.4 °F 36.0 °F 82% 30.35 in 10.0 mi North 6.9 mph - N/A   Clear
1:53 AM 42.1 °F 38.4 °F 36.0 °F 79% 30.34 in 10.0 mi North 5.8 mph - N/A   Clear
2:53 AM 34.0 °F 28.8 °F 32.0 °F 92% 30.34 in 10.0 mi NNE 5.8 mph - N/A   Clear
3:53 AM 39.9 °F 37.8 °F 35.1 °F 83% 30.36 in 10.0 mi North 3.5 mph - N/A   Clear
4:53 AM 30.0 °F - 28.0 °F 92% 30.38 in 10.0 mi Calm Calm - N/A   Clear
5:53 AM 28.9 °F - 27.0 °F 92% 30.40 in 10.0 mi Calm Calm - N/A   Clear
6:53 AM 28.0 °F - 26.1 °F 92% 30.41 in 10.0 mi Calm Calm - N/A   Clear
7:53 AM 28.9 °F - 26.1 °F 89% 30.42 in 10.0 mi Calm Calm - N/A   Clear
8:53 AM 45.0 °F 42.6 °F 39.9 °F 82% 30.43 in 10.0 mi North 4.6 mph - N/A   Clear
9:53 AM 50.0 °F - 39.9 °F 68% 30.42 in 10.0 mi NE 8.1 mph - N/A   Clear
10:53 AM 53.1 °F - 37.9 °F 57% 30.41 in 10.0 mi NNE 9.2 mph - N/A   Clear
11:53 AM 55.0 °F - 37.0 °F 51% 30.40 in 10.0 mi NNE 5.8 mph - N/A   Clear
12:53 PM 55.9 °F - 37.0 °F 49% 30.38 in 10.0 mi North 8.1 mph - N/A   Clear
1:53 PM 57.0 °F - 36.0 °F 45% 30.36 in 10.0 mi Variable 4.6 mph - N/A   Clear
2:53 PM 57.0 °F - 30.9 °F 37% 30.34 in 10.0 mi WNW 5.8 mph - N/A   Clear
3:53 PM 55.9 °F - 30.9 °F 39% 30.33 in 10.0 mi Calm Calm - N/A   Clear
4:53 PM 53.1 °F - 37.9 °F 57% 30.33 in 10.0 mi South 4.6 mph - N/A   Clear
5:53 PM 46.0 °F - 37.9 °F 73% 30.32 in 10.0 mi Calm Calm - N/A   Clear
6:53 PM 39.0 °F - 34.0 °F 82% 30.33 in 10.0 mi Calm Calm - N/A   Clear
7:53 PM 36.0 °F - 32.0 °F 86% 30.33 in 10.0 mi Calm Calm - N/A   Clear
8:53 PM 33.1 °F - 30.0 °F 89% 30.32 in 10.0 mi Calm Calm - N/A   Clear
9:53 PM 30.9 °F - 28.0 °F 89% 30.31 in 10.0 mi Calm Calm - N/A   Clear
10:53 PM 32.0 °F - 28.9 °F 88% 30.30 in 10.0 mi Calm Calm - N/A   Clear
11:53 PM 30.0 °F - 27.0 °F 88% 30.28 in 10.0 mi Calm Calm - N/A   Clear